| time (UTC) | temp F | wind direction | speed knots | gust knots | rain 1hr in | rain 24hr in | rain mn in | humidity % | barometer mb |
| 20260504174556 | 52 | 234 | 15.6 | 29.5 | 0.00 | 1.17 | 0.56 | 64 | 999.9 |
| 20260504173052 | 51 | 270 | 15.6 | 26.1 | 0.00 | 1.17 | 0.56 | 69 | 999.8 |
| 20260504171550 | 50 | 276 | 18.2 | 30.4 | 0.00 | 1.17 | 0.56 | 72 | 999.8 |
| 20260504081509 | 37 | 244 | 20.9 | 35.6 | 0.08 | 0.87 | 0.26 | 93 | 982.0 |
| 20260504044533 | 39 | 305 | 5.2 | 12.2 | 0.02 | 0.65 | 0.05 | 95 | 975.6 |
| 20260504043025 | 39 | 284 | 6.1 | 9.6 | 0.02 | 0.65 | 0.04 | 95 | 975.6 |
| 20260504041523 | 39 | 270 | 4.3 | 6.1 | 0.02 | 0.64 | 0.03 | 95 | 974.8 |
| 20260504040021 | 39 | 336 | 1.7 | 5.2 | 0.02 | 0.63 | 0.02 | 94 | 974.6 |
| 20260504034520 | 39 | 334 | 3.5 | 8.7 | 0.04 | 0.63 | 0.02 | 94 | 974.6 |
| 20260504033018 | 39 | 74 | 6.1 | 10.4 | 0.03 | 0.62 | 0.02 | 94 | 974.8 |
| 20260504031515 | 39 | 63 | 7.0 | 15.6 | 0.03 | 0.61 | 0.01 | 94 | 975.2 |
| 20260504030011 | 39 | 113 | 6.1 | 14.8 | 0.02 | 0.61 | 0.61 | 94 | 975.6 |
| 20260504024510 | 39 | 103 | 5.2 | 11.3 | 0.01 | 0.59 | 0.59 | 94 | 976.5 |
| 20260504023005 | 40 | 75 | 7.8 | 16.5 | 0.01 | 0.59 | 0.59 | 94 | 976.9 |
| 20260504021502 | 40 | 62 | 4.3 | 14.8 | 0.01 | 0.57 | 0.57 | 94 | 977.9 |
| 20260504020059 | 41 | 82 | 6.1 | 10.4 | 0.01 | 0.57 | 0.57 | 94 | 978.6 |
| 20260504014556 | 41 | 114 | 6.1 | 13.0 | 0.02 | 0.57 | 0.57 | 94 | 979.3 |
| 20260504013054 | 42 | 114 | 7.8 | 15.6 | 0.02 | 0.57 | 0.57 | 95 | 979.8 |
| 20260504011551 | 41 | 92 | 11.3 | 22.6 | 0.02 | 0.56 | 0.56 | 95 | 980.7 |
| 20260504010146 | 41 | 119 | 9.6 | 24.3 | 0.03 | 0.56 | 0.56 | 95 | 981.3 |
| 20260504004543 | 41 | 88 | 7.0 | 20.0 | 0.04 | 0.56 | 0.56 | 95 | 981.9 |
| 20260504003043 | 41 | 92 | 10.4 | 22.6 | 0.04 | 0.56 | 0.56 | 95 | 982.9 |
| 20260504001538 | 41 | 80 | 12.2 | 20.0 | 0.06 | 0.56 | 0.56 | 94 | 983.4 |
| 20260504000042 | 40 | 99 | 13.0 | 24.3 | 0.05 | 0.54 | 0.54 | 94 | 984.3 |
| 20260503234534 | 40 | 90 | 12.2 | 24.3 | 0.12 | 0.53 | 0.53 | 94 | 984.6 |
| 20260503233037 | 39 | 57 | 14.8 | 27.8 | 0.16 | 0.52 | 0.52 | 94 | 985.8 |
| 20260503231528 | 39 | 52 | 13.0 | 26.9 | 0.18 | 0.50 | 0.50 | 94 | 986.5 |
| 20260503230026 | 39 | 200 | 6.1 | 26.9 | 0.18 | 0.48 | 0.48 | 94 | 987.6 |
| 20260503224528 | 38 | 80 | 13.0 | 21.7 | 0.14 | 0.41 | 0.41 | 94 | 988.6 |
| 20260503223018 | 39 | 76 | 12.2 | 21.7 | 0.11 | 0.36 | 0.36 | 94 | 989.3 |
| 20260503221515 | 38 | 84 | 11.3 | 22.6 | 0.13 | 0.32 | 0.32 | 93 | 990.8 |
| 20260503220018 | 38 | 95 | 11.3 | 27.8 | 0.16 | 0.30 | 0.30 | 93 | 991.7 |
| 20260503214506 | 39 | 122 | 9.6 | 19.1 | 0.17 | 0.27 | 0.27 | 93 | 992.8 |
| 20260503213004 | 39 | 72 | 7.0 | 14.8 | 0.17 | 0.25 | 0.25 | 93 | 993.5 |
| 20260503211503 | 40 | 104 | 8.7 | 16.5 | 0.12 | 0.19 | 0.19 | 92 | 994.2 |
| 20260503210100 | 40 | 65 | 7.8 | 21.7 | 0.08 | 0.14 | 0.14 | 93 | 994.3 |
| 20260503204558 | 41 | 90 | 5.2 | 16.5 | 0.05 | 0.09 | 0.09 | 92 | 995.1 |
| 20260503203101 | 42 | 78 | 7.0 | 18.2 | 0.04 | 0.09 | 0.09 | 92 | 995.0 |
| 20260503201554 | 42 | 151 | 5.2 | 18.2 | 0.04 | 0.07 | 0.07 | 92 | 995.7 |
| 20260503200051 | 42 | 79 | 6.1 | 14.8 | 0.05 | 0.06 | 0.06 | 91 | 996.5 |
| 20260503194553 | 42 | 91 | 7.8 | 20.0 | 0.03 | 0.05 | 0.05 | 90 | 997.1 |
| 20260503193045 | 43 | 61 | 8.7 | 25.2 | 0.03 | 0.05 | 0.05 | 89 | 997.7 |
| 20260503191542 | 43 | 88 | 7.8 | 18.2 | 0.02 | 0.03 | 0.03 | 88 | 999.2 |
| 20260503190045 | 43 | 86 | 10.4 | 19.1 | 0.00 | 0.02 | 0.02 | 87 | 999.0 |
| 20260503184557 | 43 | 85 | 9.6 | 19.1 | 0.02 | 0.02 | 0.02 | 86 | 999.6 |
| 20260503183036 | 43 | 66 | 7.8 | 14.8 | 0.02 | 0.02 | 0.02 | 88 | 1000.7 |
| 20260503181534 | 43 | 67 | 7.0 | 13.0 | 0.02 | 0.02 | 0.02 | 87 | 1001.4 |
| 20260503180036 | 43 | 91 | 8.7 | 15.6 | 0.02 | 0.02 | 0.02 | 84 | 1002.2 |